Regional Weather Roundup
Issued by NWS

Home | Current Version | Previous Version | Graphics & Text | Print | Product List | Glossary On
Versions: 1 2 3 4 5 6 7 8 9 10 11 12 13 14 15 16 17 18 19 20 21 22 23 24 25 26 27 28 29 30 31 32 33 34 35 36 37 38 39 40 41 42 43 44 45 46 47 48 49 50
000
ASUS43 KLOT 040703
RWRIL

ILLINOIS REGIONAL WEATHER ROUNDUP
NATIONAL WEATHER SERVICE CHICAGO/ROMEOVILLE IL
200 AM CDT WED MAY 04 2016

NOTE: "FAIR" INDICATES FEW OR NO CLOUDS BELOW 12,000 FEET WITH NO
SIGNIFICANT WEATHER AND/OR OBSTRUCTIONS TO VISIBILITY.

* THESE STATIONS ARE NOT UNDER NWS QUALITY CONTROL. THEY ALSO MAY NOT
  REPORT WEATHER SUCH AS PRECIPITATION OR FOG.

ILZ001-002-007-009-015-016-024-040800-
NORTHWEST ILLINOIS

CITY           SKY/WX    TMP DP  RH WIND       PRES   REMARKS
MOLINE         LGT RAIN  51  47  86 SE9       29.67F
STERLING*      CLOUDY    48  46  93 MISG        N/A
$$

ILZ003-004-008-010-011-017-018-040800-
NORTH CENTRAL ILLINOIS

CITY           SKY/WX    TMP DP  RH WIND       PRES   REMARKS
ROCKFORD       CLOUDY    49  45  86 CALM      29.67F
FREEPORT*      CLOUDY    47  44  90 CALM      29.69S
ROCHELLE*      LGT RAIN  48  46  92 E14       29.63F
DE KALB*       RAIN      49  47  91 N12       29.68F
$$

ILZ005-006-012>014-019>023-040800-
NORTHEAST ILLINOIS

CITY           SKY/WX    TMP DP  RH WIND       PRES   REMARKS
CHICAGO-OHARE  RAIN      51  47  86 N13       29.66R FOG
CHICAGO-MIDWAY LGT RAIN  55  46  71 SW15G26   29.64S
AURORA         RAIN      50  47  89 N14       29.68R FOG
LANSING*       RAIN      54  46  74 W20G26    29.66F
WAUKEGAN       LGT RAIN  50  47  89 NW5       29.64S
DUPAGE AIRPORT RAIN      50  46  86 NW10      29.67R
WHEELING       RAIN      51  47  86 NW6       29.66S FOG
MORRIS*        LGT RAIN  53  46  76 NW15G32   29.66R
NORTHERLY ISL    N/A     57  43  59 W13         N/A
NORTHERLY ISL    N/A     57  43  59 W13         N/A
$$

LMZ740>746-040800-
SOUTHERN LAKE MICHIGAN

STATION/POSITION SKY/WX   TEMP    WIND        PRES    VSBY  WAVE
                          AIR SEA DIR/SP/G                  HT/PER
                          (F)     (DEG/KT/KT) (MB)    (MI)  (FT/S)
SOUTHERN BUOY              46 41  210/ 12/ 14 1002.4          1/ 3
HARRISON CRIB              61     220/ 19/ 24   N/A
BURNHAM HARBOR             55     290/ 11/ 13   N/A
CALUMET HARBOR             58     210/ 12/ 17 1003.4F
BURNS HARBOR               59     210/ 16/ 21 1004.7F
MICHIGAN CITY              58     170/ 11/ 17   N/A
ST. JOSEPH                 54 49                N/A           1/ 2
$$

ILZ025>027-034>036-040-047-049-050-058-095>099-040800-
WEST-CENTRAL ILLINOIS

CITY           SKY/WX    TMP DP  RH WIND       PRES   REMARKS
QUINCY         CLOUDY    56  43  61 SW13      29.74F
MACOMB*        CLOUDY    57  45  63 SW16G23   29.71F THUNDER
PITTSFIELD*    MOCLDY    56  44  64 SW9       29.77F
$$

ILZ028>032-037-038-041>044-048-051>054-059>061-040800-
CENTRAL ILLINOIS

CITY           SKY/WX    TMP DP  RH WIND       PRES   REMARKS
BLOOMINGTON    MOCLDY    54  47  77 SW17      29.70F
DECATUR        CLOUDY    56  43  61 SW15      29.74F
PEORIA         CLOUDY    57  43  59 SW13      29.68F
LINCOLN*       CLOUDY    57  46  67 SW8       29.71F
SPRINGFIELD    CLOUDY    57  44  62 SW12      29.74F
TAYLORVILLE    NOT AVBL
$$

ILZ033-039-045-046-055>057-062-063-040800-
EAST-CENTRAL ILLINOIS

CITY           SKY/WX    TMP DP  RH WIND       PRES   REMARKS
CHAMPAIGN      CLOUDY    53  45  74 SW15      29.73F
MATTOON        CLOUDY    53  42  66 SW10      29.76F
$$

ILZ079-100>102-040800-
SOUTHWEST ILLINOIS

CITY           SKY/WX    TMP DP  RH WIND       PRES   REMARKS
ALTON          MOCLDY    53  44  72 SW10      29.81F
BELLEVILLE     CLEAR     51  46  82 SW8       29.81F
CAHOKIA*       CLEAR     54  44  69 SW8       29.82F
SPARTA*        CLEAR     51  45  80 SW6       29.86F
$$

ILZ064>066-069>071-074>076-080>082-084>086-088>090-092>094-040800-
SOUTH-CENTRAL ILLINOIS

CITY           SKY/WX    TMP DP  RH WIND       PRES   REMARKS
CARBONDALE     PTCLDY    46  43  89 S6        29.87F
CAIRO*         CLEAR     52  47  84 SW5       29.90F
EFFINGHAM*     MOCLDY    52  47  81 S7        29.81F
MT. VERNON     MOCLDY    48  43  81 S3        29.85F
SALEM*         PTCLDY    52  45  76 SW6       29.83F
$$

ILZ067-068-072-073-078-083-087-091-040800-
SOUTHEAST ILLINOIS

CITY           SKY/WX    TMP DP  RH WIND       PRES   REMARKS
LAWRENCEVILLE  PTCLDY    52  45  77 SW8       29.82F
FLORA*         MOCLDY    52  46  77 SW8       29.83F
HARRISBURG*    CLEAR     49  46  92 CALM      29.87F
ROBINSON*      PTCLDY    51  44  76 SW9       29.81F
$$

ABBREVIATIONS USED IN REMARKS
   TC - TEMPERATURE IN CELSIUS
  WCI - WIND CHILL INDEX
   HX - HEAT INDEX
  VSB - VISIBILITY
$$





USA.gov is the U.S. government's official web portal to all federal, state and local government web resources and services.